Greenville, WI

2:58 AM CST on January 22, 2017 (GMT -0600)
Outagamie County Regional

Weather History for KATW - August, 2014

Change the Weather History Date:

Saturday, August 9, 2014

  Actual Average Record
Temperature  
Mean Temperature 69 °F -  
Max Temperature 78 °F 79 °F 95 °F (2001)
Min Temperature 60 °F 60 °F 46 °F (1972)
Cooling Degree Days 4    
Growing Degree Days 19 (Base 50)    
Moisture  
Dew Point 54 °F    
Average Humidity 63    
Maximum Humidity 77    
Minimum Humidity 42    
Precipitation  
Precipitation 0.00 in - - ()
Sea Level Pressure  
Sea Level Pressure 30.14 in    
Wind  
Wind Speed 3 mph (ESE)    
Max Wind Speed 13 mph    
Max Gust Speed 17 mph    
Visibility 10 miles    
Events      
Averages and records for this station are not official NWS values.
T = Trace of Precipitation, MM = Missing Value Source: NWS Daily Summary

Daily Weather History Graph

Daily Weather History Graph

Search for Another Location

Airport or City:

Trip Planner

Search our weather history database for the weather conditions in past years. The results will help you decide how hot, cold, wet, or windy it might be!

Date:

Astronomy

Aug. 09, 2014 Rise Set
Actual Time 5:50 AM CDT 8:07 PM CDT
Civil Twilight 5:18 AM CDT 8:39 PM CDT
Nautical Twilight 4:38 AM CDT 9:19 PM CDT
Astronomical Twilight 3:53 AM CDT 10:03 PM CDT
Moon 7:08 PM CDT (8/9) 4:30 AM CDT (8/9)
Length of Visible Light 15h 21m
Length of Day
14h 17m
Waxing Gibbous, 98% of the Moon is Illuminated
Aug 9
Waxing Gibbous
Aug 10
Full
Aug 17
Last Quarter
Aug 25
New
Sep 2
First Quarter

Hourly Weather History & Observations

Time (CDT) Temp. Dew Point Humidity Pressure Visibility Wind Dir Wind Speed Gust Speed Precip Events Conditions
12:15 AM 68.0 °F 53.6 °F 60% 30.14 in 10.0 mi Calm Calm - N/A   Clear
12:35 AM 68.0 °F 51.8 °F 56% 30.15 in 10.0 mi ESE 4.6 mph - N/A   Clear
12:55 AM 68.0 °F 51.8 °F 56% 30.14 in 10.0 mi East 3.5 mph - N/A   Clear
1:15 AM 68.0 °F 51.8 °F 56% 30.14 in 10.0 mi East 3.5 mph - N/A   Clear
1:35 AM 66.2 °F 51.8 °F 60% 30.14 in 10.0 mi East 3.5 mph - N/A   Clear
1:55 AM 66.2 °F 51.8 °F 60% 30.14 in 10.0 mi Calm Calm - N/A   Clear
2:15 AM 62.6 °F 53.6 °F 72% 30.14 in 10.0 mi Calm Calm - N/A   Clear
2:35 AM 62.6 °F 53.6 °F 72% 30.14 in 10.0 mi Calm Calm - N/A   Clear
2:55 AM 60.8 °F 53.6 °F 77% 30.14 in 10.0 mi Calm Calm - N/A   Clear
3:15 AM 60.8 °F 53.6 °F 77% 30.14 in 10.0 mi Calm Calm - N/A   Clear
3:35 AM 60.8 °F 53.6 °F 77% 30.13 in 10.0 mi Calm Calm - N/A   Clear
3:55 AM 60.8 °F 53.6 °F 77% 30.14 in 10.0 mi Calm Calm - N/A   Clear
4:15 AM 62.6 °F 53.6 °F 72% 30.14 in 10.0 mi East 3.5 mph - N/A   Clear
4:35 AM 62.6 °F 53.6 °F 72% 30.14 in 10.0 mi East 3.5 mph - N/A   Clear
4:55 AM 62.6 °F 53.6 °F 72% 30.14 in 10.0 mi Calm Calm - N/A   Clear
5:15 AM 62.6 °F 55.4 °F 77% 30.15 in 10.0 mi Calm Calm - N/A   Clear
5:20 AM 64.4 °F 55.4 °F 73% 30.14 in 10.0 mi Variable 4.6 mph - N/A   Scattered Clouds
5:45 AM 64.4 °F 55.4 °F 73% 30.15 in 10.0 mi Variable 4.6 mph - N/A   Scattered Clouds
6:45 AM 62.6 °F 55.4 °F 77% 30.17 in 10.0 mi Calm Calm - N/A   Scattered Clouds
7:45 AM 68.0 °F 57.2 °F 68% 30.17 in 10.0 mi Calm Calm - N/A   Scattered Clouds
8:45 AM 71.6 °F 55.4 °F 57% 30.16 in 10.0 mi Variable 5.8 mph - N/A   Scattered Clouds
9:45 AM 73.4 °F 55.4 °F 53% 30.17 in 10.0 mi SE 5.8 mph - N/A   Scattered Clouds
12:45 PM 77.0 °F 53.6 °F 44% 30.16 in 10.0 mi ESE 6.9 mph - N/A   Scattered Clouds
2:45 PM 78.8 °F 53.6 °F 42% 30.15 in 10.0 mi ESE 6.9 mph - N/A   Mostly Cloudy
3:45 PM 78.8 °F 53.6 °F 42% 30.14 in 10.0 mi ESE 10.4 mph - N/A   Mostly Cloudy
4:45 PM 78.8 °F 53.6 °F 42% 30.13 in 10.0 mi SE 9.2 mph 17.3 mph N/A   Mostly Cloudy
5:45 PM 75.2 °F 53.6 °F 47% 30.13 in 10.0 mi SE 12.7 mph - N/A   Mostly Cloudy
6:45 PM 73.4 °F 53.6 °F 50% 30.13 in 10.0 mi SE 8.1 mph - N/A   Mostly Cloudy
7:45 PM 71.6 °F 53.6 °F 53% 30.12 in 10.0 mi Variable 4.6 mph - N/A   Mostly Cloudy
8:45 PM 69.8 °F 53.6 °F 56% 30.12 in 10.0 mi Variable 4.6 mph - N/A   Mostly Cloudy
10:45 PM 68.0 °F 53.6 °F 60% 30.13 in 10.0 mi Calm Calm - N/A   Mostly Cloudy
11:15 PM 62.6 °F 53.6 °F 72% 30.13 in 10.0 mi Calm Calm - N/A   Clear
11:35 PM 62.6 °F 53.6 °F 72% 30.13 in 10.0 mi Calm Calm - N/A   Clear